Temperature
15 15 15 15 15 15 15 15 14 14 14 15 15 15 15 15 14 14 14 14 14 14 14 14 14 14 14 14 14 14 14 14 14 14 14 14 14 14
15 15 15 15 14 14 14 14 14 14 13 14 14 14 14 14 14 14 14 14 14 14 14 14 14 14 13 13 13 14 14 14 14 14 14 14 14 14
14 14 14 14 14 14 14 14 14 14 14 14 14 14 14 14 14 14 14 14 14 14 13 13 13 13 13 13 13 13 13 13 13 14 14 14 14 14
14 14 14 14 14 14 14 14 14 14 13 13 13 13 13 13 13 13 13 13 13 13 13 13 13 13 13 13 13 13 13 13 13 13 13 13 13 13
14 14 14 14 14 14 14 13 13 13 13 13 13 13 13 13 13 13 13 13 13 13 13 13 13 13 13 13 13 13 13 13 13 13 13 13 13 13
13 13 13 13 13 13 13 13 13 13 13 12 13 13 13 13 13 13 13 13 13 13 13 13 13 13 12 12 13 13 13 13 13 13 13 13 13 13
13 13 13 13 13 13 13 13 12 12 12 12 12 12 12 12 12 12 12 12 12 12 12 12 12 12 12 12 12 12 12 13 13 13 13 13 13 13
13 13 13 13 13 12 12 12 12 12 12 12 12 12 12 11 11 11 11 11 11 12 12 12 12 12 12 12 12 12 12 12 12 12 12 12 12 12
12 12 12 12 12 12 12 12 12 12 11 11 11 11 11 11 11 11 11 11 11 11 11 11 11 12 12 12 11 12 12 12 12 12 12 12 12 12
12 12 12 12 12 12 12 12 12 11 11 11 11 11 11 11 11 11 11 11 11 11 11 11 11 11 11 11 11 11 11 11 11 11 11 11 12 12
12 12 11 11 11 11 11 11 11 11 11 11 11 11 11 11 10 10 10 10 10 10 10 10 10 10 11 11 11 11 11 11 11 11 11 11 11 11
11 11 11 11 11 11 11 11 11 11 11 10 10 10 10 10 10 10 10 10 10 10 10 10 10 10 10 10 10 10 10 10 10 10 11 11 11 11
11 11 11 11 11 11 11 10 10 10 10 10 10 10 10 10 10 10 10 10 10 10 10 9 9 9 9 9 9 10 10 10 10 10 10 10 10 11
11 11 10 10 10 10 10 10 10 10 10 10 10 10 10 10 10 10 10 10 10 9 9 9 9 9 9 9 9 9 9 9 9 10 10 10 10 10
11 10 10 10 10 10 10 10 10 10 10 10 10 10 10 10 9 9 9 9 9 9 9 9 9 9 9 9 9 9 9 9 9 9 9 9 10 10
10 10 10 10 10 10 10 10 10 10 10 10 10 10 9 9 9 9 9 9 9 9 9 9 9 9 9 9 9 9 8 8 9 9 9 9 9 9
10 10 10 10 10 10 10 10 10 9 9 9 9 9 9 9 9 9 9 9 9 9 9 9 9 9 9 8 8 8 8 8 8 9 9 9 9 9
10 10 9 9 9 9 9 9 9 9 9 9 9 9 9 9 9 9 9 8 8 8 8 8 8 8 8 8 8 8 8 8 8 8 8 8 8 9
10 9 9 9 9 9 9 9 9 9 9 9 9 9 9 9 9 8 8 8 8 8 8 8 8 8 8 7 8 8 8 8 8 8 8 8 8 8
9 9 9 9 9 9 9 9 8 8 8 8 8 8 8 8 8 8 8 8 8 8 8 8 8 8 7 7 7 7 7 7 7 7 7 7 8 8
9 9 9 9 8 8 8 8 8 8 8 8 8 8 8 8 8 8 8 7 7 7 7 7 7 7 7 7 7 7 7 7 7 7 7 7 7 7
9 9 9 8 8 8 8 8 8 8 8 8 8 8 8 8 8 7 7 7 7 7 7 7 7 7 7 7 7 7 7 7 7 7 7 7 7 7
9 9 9 8 8 8 8 8 8 8 8 8 8 7 7 7 7 7 7 7 7 7 7 7 7 7 7 7 7 7 7 7 7 7 7 7 7 7
Wind_Speed
1 1 1 1 1 2 2 3 2 2 3 2 2 2 3 3 4 4 5 5 6 7 7 7 6 6 6 6 6 6 7 7 8 9 9 9 10 10
0 0 1 1 1 1 2 2 2 3 3 2 2 3 3 3 3 3 4 5 6 7 7 6 6 7 7 8 7 7 7 8 9 10 10 10 10 11
1 0 1 1 1 1 1 1 2 2 3 3 2 3 3 3 3 2 3 3 4 6 6 7 7 7 7 7 8 7 7 8 9 9 9 10 10 11
1 1 1 1 1 0 0 1 1 1 2 3 2 2 2 3 3 3 2 2 3 4 5 6 7 7 7 7 7 7 7 8 8 8 8 9 9 10
1 1 2 1 1 1 1 1 1 1 1 2 2 2 2 2 2 2 2 2 2 2 3 4 5 6 7 7 7 7 7 8 8 8 8 8 8 9
2 1 2 1 2 1 1 1 1 1 0 1 1 2 2 2 2 2 2 3 3 2 1 2 3 4 5 6 6 6 7 7 9 9 8 8 8 8
3 2 2 1 2 0 0 1 0 0 0 0 1 1 2 2 2 1 2 3 3 1 2 2 2 2 3 4 5 5 6 7 8 9 9 9 9 9
3 3 2 2 3 3 2 1 1 1 1 1 1 2 3 2 2 2 2 2 2 1 1 2 1 2 2 2 2 3 4 5 6 8 9 9 9 9
2 2 2 3 3 3 3 3 2 1 1 2 2 3 3 3 2 2 2 2 3 2 1 2 2 2 2 2 2 2 2 2 4 5 6 8 8 8
1 1 2 3 3 3 2 3 3 3 2 2 3 4 4 3 3 2 2 2 2 2 1 1 2 2 3 2 2 1 1 1 3 5 5 6 6 7
2 2 2 2 4 3 1 2 3 4 3 2 2 3 4 4 2 1 0 0 2 2 1 1 1 2 2 2 1 1 1 1 2 3 4 5 6 6
2 3 3 3 3 2 1 1 2 4 4 4 4 3 3 3 2 2 2 2 1 2 1 1 1 1 1 1 2 2 1 1 1 1 3 4 5 5
2 3 3 4 3 3 2 2 4 4 3 3 3 3 3 2 2 2 2 3 3 3 2 2 1 1 1 1 2 2 1 1 1 1 2 3 4 5
2 2 3 4 4 4 3 3 4 3 2 2 2 3 2 2 2 2 2 3 3 4 3 2 2 2 2 2 2 2 1 1 1 1 1 1 3 4
2 2 3 4 4 3 3 4 3 2 1 2 2 3 3 3 2 2 1 1 2 2 2 3 3 2 2 2 2 2 2 2 1 1 1 1 1 2
2 2 3 3 3 3 4 3 2 1 1 2 3 3 2 2 2 1 1 1 2 2 2 1 3 3 2 2 2 2 2 2 1 1 1 1 1 2
1 1 2 3 3 4 4 4 3 2 1 2 2 2 2 2 2 2 1 1 1 2 2 1 0 1 1 1 2 2 2 2 2 2 1 1 1 1
1 0 2 2 2 3 4 4 3 3 3 2 2 2 3 3 2 2 1 1 1 1 1 1 0 1 0 0 1 2 2 2 2 1 1 1 2 2
1 2 2 3 3 3 4 4 4 4 3 3 3 3 3 2 2 2 1 1 2 2 1 1 1 1 1 2 1 2 2 2 2 1 1 2 2 2
1 2 3 3 4 4 4 4 4 4 3 3 3 3 3 3 2 2 2 2 2 2 2 2 2 2 3 3 3 2 3 3 2 2 2 2 2 2
3 3 4 4 4 4 4 4 4 4 4 3 3 3 3 3 3 3 3 3 3 3 3 3 3 3 2 1 2 2 2 3 4 3 2 2 1 1
4 4 4 4 4 4 4 4 4 4 4 4 4 3 3 3 3 4 3 3 3 4 4 3 2 1 2 3 3 3 3 2 1 3 3 3 3 3
4 4 4 4 4 4 4 4 5 4 4 4 4 3 3 3 3 3 3 3 3 3 3 2 2 1 2 2 2 2 2 2 2 2 2 4 5 6
Wind_Direction
211 215 230 243 222 215 205 187 188 257 279 274 284 298 295 271 263 252 248 249 234 225 222 222 223 223 225 227 233 234 236 234 226 222 221 223 226 227
246 237 290 290 266 225 206 205 201 207 250 270 272 300 302 292 276 252 248 252 239 230 224 219 218 218 222 226 230 235 238 237 230 226 223 223 223 224
317 259 286 278 265 252 207 201 209 200 241 279 285 306 299 295 298 276 259 237 235 232 227 222 219 221 227 233 235 242 244 240 234 231 230 227 226 222
321 335 318 299 283 278 229 241 238 217 225 269 295 315 303 299 296 289 284 259 242 237 233 227 225 229 233 239 240 242 244 239 232 229 227 225 225 221
314 309 304 307 312 319 296 277 279 275 230 237 286 308 308 325 329 322 317 305 289 268 246 236 236 240 241 243 243 240 241 236 227 226 225 223 221 220
315 303 298 283 274 272 283 277 288 313 297 257 286 314 314 327 331 331 333 328 307 302 282 262 247 246 246 250 249 249 240 237 229 225 224 221 217 217
342 333 328 345 0 338 304 255 228 285 315 287 295 319 316 333 323 306 308 318 308 288 307 298 279 265 256 254 255 255 244 237 231 225 222 219 215 216
349 345 351 10 11 13 14 23 112 183 234 239 270 279 291 297 307 301 299 303 294 303 284 293 294 280 279 261 268 257 247 233 227 222 216 212 213 214
353 349 5 12 15 9 6 7 354 338 222 216 246 261 269 268 277 299 282 279 276 279 260 278 303 303 301 293 290 256 248 238 219 218 208 204 203 203
340 337 352 346 354 1 5 3 344 333 308 266 249 260 264 261 241 244 254 284 305 308 295 269 301 312 325 314 308 282 238 232 225 214 210 205 199 195
348 360 351 332 340 1 33 3 341 330 332 320 283 278 278 267 238 187 197 212 299 304 295 260 291 307 317 323 332 354 358 226 235 229 220 219 214 201
349 345 342 334 339 360 6 314 310 309 323 336 338 332 311 295 266 214 207 219 267 275 260 225 267 286 300 323 347 353 9 352 321 245 228 219 210 196
327 328 328 335 331 328 307 279 272 284 307 318 325 328 327 316 300 267 230 221 230 252 237 205 233 238 246 280 311 328 326 340 357 311 237 223 202 189
274 297 308 324 324 320 311 298 296 297 301 317 323 324 316 309 305 288 254 240 240 245 235 212 224 217 223 263 281 299 312 305 294 296 263 216 205 198
269 281 303 314 318 318 314 312 316 310 297 304 309 306 299 297 301 309 318 297 297 279 252 229 218 208 213 234 249 260 281 298 288 280 265 235 218 195
319 337 339 333 331 321 326 329 321 284 266 277 290 297 308 312 306 306 313 319 329 328 325 241 216 205 225 232 218 245 257 253 282 304 270 263 241 208
320 11 3 355 358 352 343 335 328 322 300 293 292 306 314 310 308 306 291 291 287 299 321 348 20 184 205 213 225 244 254 264 263 270 258 268 275 240
121 339 320 318 320 321 321 322 321 312 298 289 290 291 295 294 300 306 282 259 269 279 280 313 56 67 355 335 225 236 250 259 271 262 229 231 266 274
152 276 285 294 296 296 296 297 299 299 294 287 286 288 286 286 288 290 286 273 271 270 253 229 212 220 256 288 290 215 236 253 253 251 244 235 249 265
248 262 274 281 284 287 291 294 296 300 295 288 287 287 280 275 276 274 265 262 266 271 273 258 239 238 240 261 279 286 232 230 234 243 252 258 270 279
261 267 272 277 282 285 288 291 291 289 288 284 283 279 271 262 264 266 266 254 255 261 267 271 270 255 246 236 251 272 269 235 230 240 236 238 261 264
261 266 272 276 279 282 286 290 293 291 288 283 280 276 269 263 261 260 260 255 251 255 266 274 270 238 225 225 238 265 276 280 247 240 241 244 240 233
260 267 273 277 278 282 286 286 287 286 285 284 283 280 274 269 267 261 256 251 248 248 251 259 262 242 238 226 232 253 262 271 275 281 285 278 262 255
Height
1509 1509 1509 1509 1508 1508 1508 1508 1508 1506 1505 1505 1506 1505 1505 1505 1504 1504 1504 1504 1505 1505 1505 1506 1506 1507 1508 1508 1509 1509 1510 1511 1512 1513 1515 1516 1518 1520
1507 1507 1507 1507 1507 1506 1506 1506 1505 1505 1504 1503 1503 1503 1502 1502 1502 1501 1501 1501 1501 1502 1502 1502 1503 1503 1504 1504 1504 1505 1505 1506 1507 1509 1510 1512 1514 1516
1506 1505 1505 1505 1505 1504 1504 1503 1503 1503 1501 1500 1500 1500 1499 1499 1499 1498 1498 1498 1498 1498 1498 1498 1499 1499 1500 1500 1500 1500 1501 1502 1503 1504 1506 1507 1509 1511
1504 1503 1503 1503 1502 1502 1501 1501 1500 1500 1499 1498 1497 1496 1496 1496 1496 1495 1495 1495 1495 1495 1495 1495 1495 1496 1496 1496 1496 1496 1497 1497 1498 1500 1501 1502 1504 1506
1502 1501 1501 1500 1500 1499 1499 1498 1498 1497 1496 1495 1494 1493 1493 1493 1492 1492 1491 1491 1491 1491 1492 1492 1492 1492 1492 1492 1492 1492 1492 1493 1494 1496 1497 1498 1499 1501
1500 1499 1499 1498 1497 1496 1496 1495 1495 1494 1494 1492 1491 1491 1490 1490 1489 1488 1488 1488 1488 1488 1488 1488 1489 1489 1489 1489 1489 1488 1488 1489 1490 1491 1492 1494 1495 1497
1498 1497 1497 1496 1495 1494 1494 1493 1492 1492 1491 1490 1489 1488 1487 1487 1486 1485 1484 1484 1484 1485 1485 1485 1485 1485 1485 1485 1485 1484 1484 1484 1485 1487 1488 1489 1491 1493
1496 1495 1495 1494 1493 1492 1492 1491 1491 1490 1488 1488 1486 1486 1485 1485 1484 1483 1482 1481 1481 1482 1481 1481 1482 1482 1482 1482 1481 1481 1481 1481 1481 1482 1483 1485 1486 1488
1494 1494 1493 1492 1491 1490 1490 1489 1489 1488 1487 1486 1485 1484 1483 1482 1481 1480 1480 1479 1478 1479 1479 1478 1479 1479 1479 1478 1478 1478 1478 1478 1478 1478 1479 1481 1482 1483
1493 1492 1491 1490 1490 1489 1488 1487 1486 1485 1485 1484 1483 1482 1482 1481 1480 1479 1477 1477 1476 1477 1476 1475 1475 1475 1476 1475 1475 1475 1475 1475 1475 1476 1476 1477 1478 1479
1492 1491 1490 1489 1488 1487 1486 1485 1484 1483 1483 1482 1481 1480 1479 1478 1477 1476 1475 1474 1473 1474 1474 1473 1472 1472 1473 1472 1473 1473 1473 1473 1473 1473 1473 1474 1475 1476
1490 1490 1489 1488 1487 1486 1484 1483 1482 1481 1480 1479 1478 1477 1476 1476 1475 1474 1473 1472 1471 1471 1471 1471 1470 1470 1470 1470 1470 1470 1470 1471 1471 1471 1471 1471 1472 1473
1489 1488 1487 1486 1485 1484 1483 1481 1480 1479 1478 1477 1475 1474 1473 1473 1472 1471 1471 1471 1470 1469 1469 1469 1468 1468 1468 1467 1467 1468 1468 1468 1468 1469 1469 1469 1470 1470
1487 1486 1486 1485 1483 1482 1481 1480 1479 1477 1476 1474 1473 1472 1471 1470 1469 1469 1468 1468 1468 1467 1467 1466 1465 1465 1465 1464 1465 1465 1466 1466 1466 1466 1467 1467 1467 1468
1486 1485 1484 1483 1481 1480 1479 1477 1476 1474 1473 1472 1471 1469 1469 1468 1467 1466 1465 1465 1465 1464 1464 1463 1463 1463 1463 1462 1462 1462 1463 1463 1464 1464 1464 1465 1465 1465
1484 1483 1482 1480 1479 1478 1476 1475 1474 1472 1471 1470 1468 1467 1466 1465 1465 1464 1463 1462 1462 1462 1462 1461 1460 1460 1460 1460 1460 1460 1461 1461 1461 1461 1462 1462 1462 1463
1482 1480 1479 1478 1476 1475 1474 1472 1471 1470 1468 1467 1466 1465 1464 1463 1462 1461 1460 1460 1460 1459 1458 1458 1458 1458 1458 1458 1458 1458 1458 1458 1459 1459 1459 1459 1460 1461
1479 1477 1476 1475 1474 1473 1471 1470 1469 1467 1466 1465 1464 1463 1462 1461 1459 1458 1458 1457 1457 1456 1456 1456 1456 1456 1456 1455 1456 1456 1456 1456 1456 1456 1456 1456 1456 1458
1476 1475 1474 1473 1472 1471 1469 1468 1466 1465 1463 1462 1461 1460 1459 1458 1457 1456 1455 1455 1454 1454 1453 1454 1454 1453 1453 1452 1453 1454 1454 1453 1454 1454 1454 1454 1454 1455
1474 1473 1472 1471 1470 1468 1467 1465 1463 1462 1461 1459 1458 1457 1456 1455 1454 1453 1452 1452 1451 1451 1451 1451 1451 1450 1450 1450 1450 1451 1452 1451 1451 1452 1452 1452 1452 1453
1472 1471 1470 1469 1467 1466 1464 1462 1460 1459 1457 1456 1455 1454 1453 1452 1450 1450 1449 1448 1448 1448 1447 1447 1447 1448 1447 1447 1447 1447 1449 1449 1449 1449 1450 1450 1450 1450
1469 1468 1467 1465 1464 1462 1461 1459 1457 1455 1454 1453 1451 1450 1449 1448 1447 1446 1445 1445 1444 1444 1444 1444 1444 1444 1444 1444 1444 1444 1445 1446 1447 1447 1448 1448 1448 1448
1466 1465 1464 1462 1460 1459 1457 1455 1454 1452 1450 1449 1447 1446 1445 1444 1443 1442 1442 1441 1441 1441 1441 1440 1440 1441 1441 1441 1442 1442 1443 1443 1444 1444 1445 1445 1446 1446